Temp
11 11 11 11 11 10 10 9 9 8 7 7 7 7 7 7 7 7 7 7 7 7 8 8 7 5 5 6 5 6 6 6 7 7 7 6 6 6 6 6 6 6 6 6 6 6 6 6 6
11 11 11 11 11 10 10 9 9 8 7 7 6 6 6 6 6 6 6 7 7 6 6 7 7 6 5 5 5 5 6 6 6 7 7 6 5 6 6 6 6 6 6 6 6 6 6 6 6
12 12 11 11 11 11 10 10 8 7 6 5 5 5 5 5 5 6 5 5 6 6 6 6 6 5 4 6 6 5 5 6 6 6 7 7 6 5 5 6 6 6 6 6 6 6 6 6 6
11 11 11 11 10 10 9 8 8 7 6 5 4 4 3 3 4 4 4 4 4 5 5 5 6 5 4 4 6 4 4 5 5 6 6 6 6 5 5 5 5 6 5 6 5 5 6 6 6
11 11 10 10 9 8 8 7 6 5 4 4 3 3 3 3 2 2 2 2 2 3 3 3 4 5 4 4 4 5 5 5 5 5 6 6 6 6 5 5 5 5 5 5 5 5 5 6 6
10 10 10 9 8 8 7 6 6 4 3 2 1 1 1 1 1 -0 -0 -0 -0 1 2 2 2 3 4 4 4 4 5 4 5 5 5 5 5 6 5 4 5 5 5 5 5 5 5 5 6
10 10 9 9 8 7 6 5 4 4 3 2 1 0 0 -1 -2 -2 -2 -2 -2 -2 -1 1 1 1 2 3 4 3 4 4 3 5 5 5 5 5 5 4 5 5 5 5 5 5 5 5 5
9 9 9 8 7 6 5 4 3 4 3 1 0 -1 -1 -2 -4 -4 -3 -3 -3 -2 -2 -2 -0 1 2 2 3 3 3 4 4 4 5 4 5 5 5 5 4 4 5 5 5 5 5 4 5
9 8 7 6 6 5 4 4 4 3 2 1 -1 -2 -4 -5 -5 -6 -5 -5 -5 -4 -4 -3 -3 -1 1 2 2 2 3 3 4 4 3 5 4 5 4 5 4 3 4 5 5 5 5 5 4
8 7 6 6 5 5 3 4 3 2 1 -1 -1 -3 -4 -6 -6 -7 -6 -6 -5 -5 -5 -4 -3 -3 -2 0 2 2 2 2 3 3 4 4 5 4 5 5 4 4 3 4 4 4 4 4 4
7 7 6 5 6 4 4 3 2 1 -1 -2 -3 -5 -6 -6 -7 -7 -7 -7 -6 -5 -5 -4 -4 -3 -3 -2 -1 1 2 2 2 3 3 3 4 4 5 4 4 4 4 3 3 4 4 4 4
6 6 5 5 4 4 3 2 2 -0 -2 -4 -5 -6 -6 -6 -7 -7 -7 -7 -6 -6 -6 -5 -4 -4 -3 -2 -2 -1 0 1 2 3 3 4 3 4 4 5 4 4 4 3 3 4 4 4 4
6 5 5 4 4 4 3 1 1 -1 -3 -5 -6 -6 -7 -7 -6 -7 -7 -7 -6 -6 -6 -5 -5 -4 -3 -3 -2 -1 -0 0 1 2 3 3 3 3 3 4 4 4 4 3 4 4 4 4 4
5 4 4 4 4 4 3 2 1 -1 -3 -4 -5 -6 -6 -6 -6 -7 -7 -6 -6 -6 -6 -5 -4 -3 -3 -2 -2 -2 -1 -0 0 0 1 2 3 3 2 2 3 4 4 4 3 4 4 4 4
5 4 4 4 4 3 3 2 1 -1 -2 -3 -4 -5 -5 -6 -6 -7 -7 -7 -6 -7 -6 -5 -4 -4 -3 -3 -3 -2 -2 -1 -0 0 0 1 2 3 2 1 2 4 4 3 3 3 3 3 3
4 3 4 3 3 2 2 1 0 -0 -1 -3 -4 -4 -5 -5 -6 -7 -7 -7 -7 -7 -7 -6 -6 -5 -5 -4 -4 -3 -3 -2 -1 -1 -0 0 1 1 3 2 1 3 3 3 3 3 3 3 3
4 3 2 2 3 2 1 2 0 -1 -2 -3 -4 -4 -4 -5 -5 -6 -6 -6 -7 -7 -7 -6 -5 -5 -5 -5 -5 -5 -4 -3 -2 -2 -1 -1 1 1 2 3 2 1 2 3 3 3 3 3 3
2 1 1 1 2 3 2 2 0 -1 -2 -4 -4 -4 -4 -4 -5 -5 -5 -6 -7 -8 -8 -7 -6 -5 -5 -5 -5 -5 -5 -4 -3 -3 -2 -1 -0 0 1 2 2 1 2 2 2 2 3 3 3
2 2 1 2 2 2 3 2 0 -1 -2 -4 -4 -5 -5 -5 -5 -6 -6 -7 -8 -8 -8 -8 -7 -6 -6 -5 -5 -4 -5 -5 -4 -3 -3 -2 -1 -1 1 1 1 1 2 3 2 2 3 3 2
1 1 1 1 2 0 2 3 1 -0 -2 -3 -4 -5 -6 -6 -7 -7 -8 -8 -9 -9 -9 -9 -8 -7 -6 -6 -5 -5 -5 -4 -4 -4 -3 -2 -2 -1 0 1 2 2 2 3 1 2 3 3 2
1 0 0 -1 1 1 -1 2 1 -0 -2 -3 -4 -6 -6 -6 -7 -8 -9 -9 -10 -10 -10 -9 -9 -8 -7 -6 -6 -5 -5 -5 -4 -4 -4 -2 -2 -2 -0 1 2 1 1 1 1 2 3 3 2
1 -0 -1 -1 -1 -2 -4 -5 0 -1 -1 -3 -4 -6 -7 -8 -9 -9 -9 -10 -10 -10 -11 -11 -10 -9 -8 -7 -7 -6 -5 -5 -5 -4 -4 -4 -2 -2 -1 1 0 0 2 1 1 2 2 2 3
-0 -0 -1 -1 -2 -3 -5 -7 1 -0 -1 -2 -4 -6 -7 -8 -10 -11 -11 -12 -12 -12 -11 -11 -10 -9 -8 -7 -7 -6 -6 -5 -5 -4 -4 -4 -3 -1 -2 0 -0 1 -0 -0 1 2 1 3 3
-1 -0 -1 -2 -3 -10 -6 -6 1 -1 -1 -2 -4 -6 -7 -7 -9 -11 -12 -12 -11 -11 -10 -10 -10 -9 -8 -7 -7 -7 -6 -6 -5 -5 -4 -4 -4 -2 -1 -1 -1 -0 -0 -0 0 1 1 2 2
-1 -1 -3 -6 -8 -8 -6 -7 2 -0 -1 -3 -4 -5 -7 -8 -9 -10 -11 -11 -11 -11 -11 -11 -10 -10 -10 -9 -9 -8 -7 -7 -6 -6 -5 -4 -4 -3 -2 -2 -1 -0 0 -1 -0 1 1 3 2
-2 -4 -3 -8 -10 -11 -6 -7 2 0 -2 -3 -4 -5 -6 -8 -9 -10 -10 -10 -10 -10 -10 -10 -10 -9 -10 -10 -10 -9 -8 -7 -7 -6 -5 -5 -4 -4 -3 -1 -2 -1 -2 -0 -2 0 1 2 2
-2 -4 -5 -7 -12 -17 -6 -1 0 -0 -2 -3 -4 -5 -6 -8 -9 -9 -10 -10 -10 -10 -10 -10 -10 -10 -10 -11 -11 -10 -10 -8 -8 -7 -6 -6 -5 -4 -3 -2 -2 -2 -0 0 -1 -1 1 1 2
-3 -5 -6 -7 -12 -10 -9 -5 -1 -0 -2 -3 -5 -6 -7 -8 -8 -9 -10 -10 -10 -10 -10 -10 -10 -11 -11 -11 -11 -11 -11 -10 -9 -8 -7 -6 -6 -5 -4 -3 -2 -2 -1 1 -2 -1 -1 -0 1
-3 -5 -6 -8 -9 -16 -16 -4 -0 -1 -2 -4 -5 -6 -7 -7 -8 -8 -9 -10 -10 -10 -10 -10 -11 -12 -12 -12 -13 -12 -11 -11 -10 -10 -8 -7 -7 -5 -4 -4 -3 -3 -2 -2 -3 -1 -1 -1 -0
-4 -4 -7 -7 -10 -11 -15 -9 -0 -1 -3 -4 -5 -6 -7 -7 -8 -8 -8 -9 -10 -10 -10 -11 -12 -12 -13 -12 -12 -12 -12 -12 -12 -11 -10 -7 -7 -6 -5 -4 -3 -2 -2 -2 -2 -1 -0 -1 -1
Height
3140 3139 3138 3138 3142 3138 3137 3139 3137 3137 3137 3136 3136 3137 3136 3134 3134 3136 3130 3128 3128 3129 3130 3131 3134 3134 3135 3136 3139 3141 3142 3143 3145 3145 3147 3149 3152 3153 3156 3157 3158 3160 3160 3162 3163 3165 3167 3168 3169
3139 3139 3138 3137 3139 3137 3137 3136 3136 3136 3135 3134 3133 3132 3132 3129 3128 3128 3130 3129 3128 3126 3126 3126 3127 3129 3131 3131 3134 3136 3138 3139 3141 3143 3143 3145 3149 3152 3153 3156 3157 3158 3160 3161 3163 3164 3166 3168 3169
3140 3139 3139 3137 3136 3136 3135 3135 3134 3133 3131 3130 3130 3130 3129 3127 3126 3124 3123 3125 3125 3125 3124 3124 3123 3123 3126 3128 3129 3130 3133 3135 3137 3139 3141 3142 3144 3149 3151 3153 3156 3158 3159 3161 3162 3164 3166 3168 3169
3139 3139 3139 3137 3134 3134 3135 3133 3132 3130 3129 3128 3127 3126 3124 3123 3122 3121 3118 3118 3119 3120 3119 3120 3120 3119 3120 3123 3123 3126 3127 3130 3133 3135 3138 3139 3141 3143 3148 3151 3154 3155 3157 3159 3161 3163 3165 3167 3169
3139 3138 3136 3134 3134 3133 3132 3130 3129 3129 3127 3125 3123 3120 3118 3117 3115 3114 3113 3112 3113 3114 3113 3113 3114 3115 3115 3116 3118 3119 3122 3125 3128 3131 3134 3136 3138 3138 3143 3148 3150 3153 3155 3158 3160 3162 3164 3166 3168
3139 3137 3135 3134 3134 3132 3130 3128 3127 3126 3123 3121 3118 3115 3112 3109 3109 3109 3108 3106 3106 3108 3108 3107 3107 3109 3109 3110 3112 3114 3116 3120 3123 3126 3128 3132 3135 3137 3136 3142 3148 3150 3153 3155 3158 3160 3162 3164 3167
3137 3136 3134 3133 3133 3130 3128 3127 3125 3123 3120 3116 3113 3109 3106 3106 3104 3102 3101 3100 3099 3099 3101 3101 3100 3100 3102 3103 3105 3107 3110 3113 3116 3119 3124 3127 3130 3133 3134 3135 3142 3147 3149 3152 3154 3157 3160 3162 3165
3135 3134 3133 3131 3132 3129 3126 3123 3121 3118 3114 3109 3107 3103 3100 3098 3097 3095 3094 3094 3092 3092 3091 3094 3094 3093 3092 3097 3098 3100 3103 3105 3108 3113 3117 3121 3124 3127 3130 3131 3134 3141 3145 3148 3152 3154 3157 3160 3163
3135 3134 3132 3131 3130 3126 3121 3120 3117 3113 3109 3104 3101 3097 3094 3091 3088 3088 3089 3088 3086 3083 3083 3083 3086 3086 3088 3087 3090 3093 3096 3099 3102 3105 3111 3114 3119 3121 3124 3127 3127 3132 3140 3144 3148 3151 3154 3158 3160
3134 3133 3131 3130 3128 3124 3120 3117 3112 3108 3102 3099 3094 3090 3088 3085 3085 3083 3083 3082 3080 3078 3076 3076 3077 3078 3078 3080 3082 3084 3088 3091 3095 3098 3102 3108 3110 3115 3118 3122 3124 3124 3132 3139 3143 3147 3151 3154 3157
3132 3132 3130 3128 3126 3122 3117 3114 3108 3102 3097 3092 3088 3085 3083 3081 3079 3079 3078 3076 3074 3073 3072 3071 3070 3070 3072 3072 3074 3076 3077 3082 3087 3091 3095 3100 3102 3105 3110 3115 3118 3120 3124 3132 3137 3142 3146 3150 3153
3133 3130 3129 3125 3122 3118 3114 3108 3102 3098 3093 3088 3085 3083 3081 3078 3077 3076 3074 3072 3070 3069 3068 3067 3066 3065 3064 3066 3068 3069 3071 3073 3076 3082 3087 3091 3094 3082 3098 3105 3109 3114 3117 3123 3130 3135 3141 3145 3150
3131 3129 3126 3121 3117 3115 3110 3103 3098 3092 3086 3082 3079 3078 3077 3075 3074 3072 3070 3068 3067 3066 3065 3063 3062 3061 3060 3061 3062 3064 3064 3066 3068 3072 3077 3082 3083 3082 3084 3091 3101 3105 3111 3116 3123 3129 3135 3141 3146
3129 3127 3123 3118 3113 3111 3107 3100 3092 3086 3080 3077 3076 3075 3073 3072 3072 3069 3068 3065 3064 3063 3061 3059 3057 3055 3055 3055 3056 3057 3058 3060 3061 3063 3067 3072 3075 3077 3080 3087 3089 3098 3107 3109 3117 3124 3130 3136 3141
3126 3124 3121 3116 3111 3106 3099 3093 3088 3082 3076 3074 3072 3070 3069 3067 3067 3066 3064 3062 3060 3060 3058 3056 3054 3052 3051 3050 3049 3050 3050 3051 3053 3055 3057 3061 3064 3069 3077 3075 3080 3087 3097 3102 3110 3117 3125 3130 3136
3124 3121 3117 3114 3107 3102 3097 3093 3086 3082 3076 3072 3069 3067 3064 3064 3063 3061 3059 3058 3057 3056 3053 3052 3051 3049 3046 3044 3042 3040 3041 3043 3044 3046 3048 3052 3056 3060 3069 3077 3072 3080 3089 3094 3101 3109 3118 3125 3131
3120 3117 3113 3108 3102 3097 3094 3092 3087 3081 3074 3070 3067 3064 3060 3058 3056 3056 3055 3054 3053 3051 3048 3047 3046 3044 3042 3038 3036 3035 3033 3034 3035 3035 3039 3042 3046 3053 3062 3070 3073 3075 3080 3086 3093 3103 3112 3118 3124
3119 3113 3109 3105 3100 3096 3092 3089 3083 3078 3072 3068 3063 3059 3056 3053 3053 3050 3050 3050 3048 3045 3041 3038 3038 3036 3035 3032 3030 3028 3027 3026 3026 3026 3029 3032 3036 3043 3052 3060 3067 3069 3073 3079 3086 3095 3104 3113 3119
3119 3114 3109 3102 3096 3092 3086 3082 3079 3074 3070 3064 3060 3054 3051 3049 3047 3048 3047 3045 3042 3038 3034 3031 3029 3029 3027 3024 3021 3020 3018 3019 3018 3018 3020 3023 3027 3032 3041 3049 3057 3063 3063 3072 3080 3088 3094 3102 3108
3116 3112 3104 3101 3094 3087 3082 3076 3073 3071 3066 3061 3058 3054 3049 3047 3046 3044 3042 3039 3036 3032 3029 3024 3020 3019 3017 3014 3012 3010 3008 3008 3009 3009 3011 3014 3018 3024 3032 3041 3047 3056 3058 3064 3073 3078 3086 3095 3102
3113 3110 3103 3096 3089 3083 3077 3069 3068 3065 3062 3058 3054 3052 3049 3045 3042 3040 3036 3032 3029 3024 3019 3014 3009 3006 3004 3002 3000 3000 2999 2997 2998 3000 3002 3004 3009 3015 3022 3030 3038 3047 3052 3058 3066 3072 3078 3086 3094
3109 3107 3100 3092 3088 3085 3081 3075 3064 3062 3059 3055 3051 3046 3042 3039 3035 3031 3028 3024 3020 3015 3009 3003 2998 2993 2993 2992 2988 2988 2988 2987 2986 2988 2991 2994 2999 3005 3011 3020 3027 3037 3040 3047 3055 3059 3070 3079 3084
3111 3103 3095 3090 3088 3085 3080 3077 3060 3060 3057 3053 3048 3042 3035 3030 3027 3024 3019 3014 3009 3002 2993 2987 2983 2980 2978 2979 2977 2974 2974 2974 2976 2977 2980 2983 2987 2994 3002 3008 3016 3027 3033 3039 3047 3052 3061 3069 3080
3109 3101 3091 3088 3085 3083 3080 3082 3059 3057 3054 3051 3043 3036 3031 3026 3019 3014 3010 3002 2994 2987 2979 2973 2967 2964 2964 2964 2963 2961 2960 2962 2960 2963 2966 2971 2975 2981 2990 2996 3003 3015 3025 3029 3038 3046 3053 3063 3073
3110 3102 3092 3091 3087 3082 3073 3074 3058 3056 3051 3045 3039 3032 3026 3019 3013 3006 2998 2989 2979 2972 2966 2960 2954 2948 2945 2944 2944 2945 2943 2943 2945 2947 2952 2957 2963 2968 2976 2985 2992 3002 3012 3022 3029 3037 3047 3056 3064
3107 3108 3109 3111 3099 3084 3073 3063 3052 3049 3045 3041 3035 3028 3020 3014 3008 2999 2988 2977 2969 2960 2952 2945 2939 2933 2930 2925 2924 2925 2925 2925 2927 2930 2935 2941 2948 2954 2962 2971 2980 2990 3002 3013 3021 3028 3038 3048 3058
3108 3107 3108 3103 3096 3093 3065 3054 3046 3044 3040 3036 3030 3022 3015 3007 2999 2990 2979 2968 2957 2948 2941 2933 2926 2921 2916 2909 2904 2900 2905 2906 2906 2912 2917 2924 2932 2940 2947 2956 2966 2978 2989 2998 3012 3020 3031 3040 3049
3109 3109 3104 3102 3101 3090 3062 3054 3045 3041 3037 3031 3024 3017 3009 2999 2989 2980 2967 2956 2945 2936 2927 2920 2913 2902 2895 2888 2883 2880 2880 2883 2884 2889 2897 2905 2914 2924 2932 2942 2952 2964 2975 2987 2999 3012 3020 3030 3039
3104 3101 3100 3100 3097 3095 3085 3047 3040 3035 3032 3024 3017 3010 3000 2989 2978 2965 2954 2943 2933 2924 2915 2904 2894 2884 2877 2870 2865 2862 2861 2862 2863 2868 2877 2886 2896 2907 2917 2927 2940 2951 2962 2974 2987 3003 3010 3021 3031
3100 3096 3094 3096 3092 3089 3084 3045 3034 3030 3026 3018 3008 3000 2990 2979 2966 2954 2943 2932 2922 2912 2901 2890 2879 2869 2863 2858 2852 2849 2847 2845 2846 2850 2858 2866 2879 2890 2901 2913 2925 2939 2951 2962 2978 2993 3002 3013 3022
Wind_Speed
6 6 7 6 3 2 4 4 9 11 11 12 14 14 14 17 15 9 7 18 27 28 27 26 29 28 24 28 23 22 21 22 20 20 18 16 14 12 12 12 12 13 14 14 13 13 12 11 9
9 10 10 6 4 5 7 9 10 12 14 18 19 19 20 25 24 23 21 14 14 22 27 28 31 33 27 27 29 26 25 25 24 23 22 20 17 16 15 14 13 15 16 15 14 14 13 12 9
10 9 10 6 5 10 9 13 14 15 16 18 19 20 22 25 27 30 28 25 24 22 19 26 28 31 33 27 27 31 28 28 27 27 25 23 21 18 17 17 16 16 17 16 16 16 15 13 10
9 8 7 6 10 12 13 16 17 18 21 23 24 24 25 26 29 32 32 30 30 29 27 25 27 30 31 37 29 33 32 29 30 29 28 25 24 21 20 19 18 18 17 18 17 18 17 14 12
9 9 5 10 11 12 14 16 17 18 21 25 26 28 30 32 33 33 34 33 30 30 31 29 29 27 29 33 39 27 38 32 31 32 30 28 27 26 23 21 20 19 19 20 20 20 19 16 15
10 10 9 10 14 15 17 19 21 22 24 26 28 31 35 36 34 34 34 35 33 33 32 33 31 30 31 29 34 40 31 37 32 34 34 32 30 29 28 22 21 21 21 21 22 23 21 19 17
11 12 11 14 14 18 20 21 22 25 28 31 34 35 40 36 34 33 35 36 37 34 33 37 38 35 33 35 34 33 42 33 41 36 36 35 33 32 31 28 24 23 22 24 25 25 24 21 19
13 11 11 12 15 19 20 26 28 31 33 35 35 26 35 37 36 36 37 37 38 39 38 34 38 43 43 37 38 36 33 46 31 43 40 38 36 35 34 32 29 27 24 25 27 27 27 24 21
12 10 11 14 19 22 24 27 31 34 35 37 36 35 34 31 31 32 31 31 32 34 35 36 31 37 44 47 43 41 38 37 45 38 43 41 40 39 38 36 35 31 26 26 29 30 29 26 23
12 10 14 18 22 22 26 30 31 33 35 35 35 33 31 30 29 28 26 27 28 31 32 32 32 30 33 38 47 49 46 41 39 50 37 44 43 43 42 40 38 35 29 28 31 33 30 28 26
13 11 16 23 20 24 27 26 32 33 34 32 28 24 23 22 23 25 24 25 26 27 27 27 26 25 24 28 34 41 48 50 45 43 50 46 48 51 47 44 40 40 37 33 35 35 33 30 28
11 10 19 22 24 26 27 31 33 33 32 29 21 18 16 14 14 18 21 22 24 24 24 24 24 24 23 23 24 29 37 44 48 48 44 56 53 54 51 50 48 48 39 36 38 38 35 32 29
10 10 21 22 27 26 30 29 32 32 30 24 18 14 13 15 17 21 20 21 19 17 17 18 18 19 20 21 21 23 28 33 40 45 51 51 54 48 48 47 49 46 42 40 42 41 38 35 31
11 9 22 27 30 26 29 25 36 34 34 26 21 16 15 16 18 18 17 16 13 14 16 17 19 20 23 25 26 24 24 27 35 38 47 55 56 56 48 47 46 54 45 47 44 43 39 37 34
14 10 23 31 28 26 29 26 35 38 39 26 23 21 18 18 17 17 16 14 11 14 17 18 20 23 26 27 29 29 28 29 35 40 38 51 54 61 52 46 23 56 53 50 46 44 42 39 37
20 14 24 30 27 30 30 28 31 36 31 20 21 21 22 21 20 19 20 17 15 15 20 21 21 23 25 27 29 32 31 32 34 41 40 43 53 52 59 47 46 46 52 53 50 47 44 43 40
23 26 28 29 27 31 28 25 25 31 29 22 22 24 24 22 23 22 22 19 18 23 26 27 26 25 27 29 30 32 33 31 33 39 42 39 47 51 58 51 39 41 53 56 54 49 47 47 43
26 30 34 36 30 28 24 24 18 29 30 23 22 24 25 23 22 24 21 19 23 29 33 34 32 30 27 29 32 34 35 32 32 37 41 40 41 49 52 62 47 47 58 56 56 52 49 48 45
25 25 34 34 30 29 26 24 13 22 29 31 28 23 21 21 20 20 20 23 29 35 39 41 40 35 32 30 32 36 36 34 33 37 39 41 40 39 46 51 48 48 42 50 56 55 53 53 50
25 25 36 26 26 29 22 21 12 19 25 34 34 28 21 20 20 21 25 30 34 39 42 46 47 41 36 36 34 33 35 35 33 36 38 41 41 38 45 54 54 48 49 49 54 59 57 55 51
23 26 36 37 26 24 23 13 14 15 26 34 37 32 25 22 22 25 28 34 38 43 47 50 51 49 44 43 38 32 33 37 34 36 38 40 42 39 43 50 52 50 66 63 63 62 61 60 57
21 32 37 27 18 11 19 10 9 14 25 38 38 38 36 31 26 25 29 34 39 45 50 54 57 57 53 49 43 36 33 36 35 38 39 39 43 43 41 50 53 60 52 56 60 61 60 63 64
23 34 37 18 15 16 8 8 10 18 23 39 40 41 43 41 34 32 32 39 48 55 57 55 54 52 49 45 43 42 37 35 37 39 42 41 43 46 44 54 52 63 50 69 47 65 58 67 64
24 35 22 11 11 3 6 13 13 14 27 38 42 45 47 47 44 42 43 54 54 52 52 52 51 49 45 44 43 44 44 41 40 41 43 45 46 49 48 50 53 53 57 45 62 61 61 70 54
18 29 8 5 3 5 13 16 20 19 24 38 45 47 48 51 52 53 57 58 56 53 50 49 50 52 53 52 49 45 45 43 44 42 46 46 49 51 53 51 55 56 58 43 46 68 66 71 61
16 18 3 5 4 8 30 10 16 20 20 38 46 49 51 53 53 55 57 57 54 52 50 51 54 56 56 57 54 47 45 45 46 47 47 50 50 54 55 56 54 55 65 59 41 61 66 71 65
13 13 11 7 9 5 8 17 28 28 28 41 47 52 52 53 54 55 55 55 53 51 52 54 56 56 55 56 55 53 50 47 48 48 50 52 53 56 57 59 57 56 64 70 59 49 64 72 73
15 13 8 6 4 7 7 14 26 28 33 44 49 53 53 54 56 55 55 54 52 52 54 56 57 57 55 54 54 49 45 45 48 50 54 54 56 57 61 61 60 55 61 70 63 46 59 69 70
17 16 5 8 6 4 4 16 23 33 45 47 49 50 52 55 58 58 57 55 52 54 56 57 57 55 46 40 37 38 42 40 41 47 52 57 57 60 63 63 63 57 59 65 61 60 55 62 65
19 21 18 6 6 11 6 22 29 50 44 48 50 49 53 57 59 58 56 54 52 54 56 57 51 42 36 34 32 32 36 34 35 42 48 57 60 62 64 66 64 60 60 64 71 65 60 59 63
Wind_Direction
1 356 350 342 322 270 275 272 270 274 274 265 261 256 258 256 238 227 249 235 229 228 230 232 233 221 228 219 223 218 219 218 215 209 208 206 210 211 220 218 213 204 192 186 187 184 178 174 174
3 358 348 337 316 319 312 300 291 280 269 270 269 267 265 260 258 258 260 260 250 237 234 234 229 229 214 227 211 222 221 221 217 214 210 205 204 213 213 216 214 207 200 190 190 189 184 181 186
357 348 343 332 327 309 294 301 300 286 274 275 280 274 272 268 267 266 265 260 255 252 244 239 236 234 217 217 214 223 218 223 221 216 216 211 199 208 212 212 214 211 207 198 194 194 189 189 191
345 342 325 308 303 296 298 290 285 284 283 281 278 280 275 274 268 265 267 265 259 253 251 241 239 235 234 219 218 222 228 223 221 219 218 214 207 201 209 212 213 213 208 202 200 196 194 194 193
343 340 321 312 303 307 303 295 292 290 286 285 284 281 277 276 273 270 266 267 265 261 259 250 242 239 237 233 224 218 225 226 225 220 219 216 214 202 201 210 214 215 214 209 206 199 197 197 196
350 344 330 329 321 317 311 307 305 299 295 290 289 287 282 279 279 281 278 275 271 264 258 260 255 246 242 239 237 227 222 223 230 225 219 217 214 211 193 206 219 219 218 214 210 204 201 199 198
347 346 340 326 325 316 316 310 310 304 301 298 294 290 288 293 290 286 282 281 281 279 269 261 261 259 251 246 242 236 228 224 227 222 223 218 215 212 206 194 213 222 221 218 210 208 205 200 200
352 347 334 327 329 321 316 313 309 309 307 303 300 295 295 293 292 288 286 285 282 281 280 270 262 259 259 252 249 246 238 233 233 223 223 222 216 213 211 202 200 216 222 218 215 210 209 202 203
352 350 340 343 332 319 317 317 316 312 308 306 306 303 301 297 290 290 292 291 288 285 281 280 272 262 258 259 257 251 248 239 230 229 224 221 220 215 212 209 200 203 218 218 215 212 211 207 205
357 356 350 340 331 324 322 325 321 313 311 309 306 304 301 298 298 298 298 295 289 284 283 278 278 270 264 254 253 257 251 249 242 234 230 224 219 218 215 214 211 197 206 215 213 212 211 209 210
2 357 347 341 332 329 334 334 321 321 320 315 311 307 306 306 299 296 298 295 295 294 293 290 285 278 270 265 255 249 253 251 248 244 232 230 224 214 215 213 213 198 202 206 211 212 211 211 212
354 352 345 343 341 342 343 335 329 328 320 317 310 304 302 303 300 304 303 301 300 298 297 297 294 289 280 270 263 259 253 251 248 245 241 229 230 235 209 210 217 205 199 198 209 208 211 212 212
345 348 347 348 346 352 343 339 334 330 328 321 315 309 292 285 292 316 310 302 304 310 313 311 307 302 296 287 276 262 259 258 252 245 241 234 232 235 230 214 209 207 200 199 207 206 212 213 211
340 351 354 351 347 348 348 341 340 338 337 328 321 304 287 287 295 314 312 300 311 320 313 310 309 307 303 295 288 277 264 265 261 254 242 239 235 234 230 227 216 206 209 203 203 208 213 209 209
351 359 358 354 344 347 352 356 343 342 333 324 319 306 291 289 291 294 291 283 301 303 298 300 300 294 290 288 285 282 278 273 261 255 249 238 239 235 241 243 220 201 207 205 201 207 212 205 206
5 357 357 351 346 350 354 357 347 344 333 317 311 312 298 289 288 283 275 267 281 292 292 296 294 291 288 287 288 287 280 274 269 251 248 241 237 238 235 225 243 205 209 206 201 205 207 204 207
6 353 349 351 345 349 350 351 343 359 356 328 311 311 305 288 282 279 270 266 283 294 297 297 294 291 286 285 287 287 283 274 267 254 244 241 237 236 232 232 234 224 208 210 204 203 207 206 204
351 352 345 345 339 345 337 342 340 4 9 352 328 313 308 295 285 279 276 275 286 293 295 297 296 295 288 285 281 281 284 275 263 253 243 240 237 234 231 234 233 220 206 208 206 205 203 210 204
357 348 344 344 336 335 329 339 329 357 6 7 351 333 317 302 294 291 283 283 290 294 295 297 296 293 292 289 277 271 276 274 262 254 243 238 238 233 227 233 225 218 202 206 207 206 204 205 202
351 348 342 340 330 324 330 338 331 347 354 359 1 355 335 315 305 296 294 294 294 295 297 297 297 297 297 295 289 281 272 270 262 254 242 236 236 232 222 229 226 216 227 207 207 207 206 205 204
353 346 339 329 326 325 329 326 327 342 352 349 351 354 354 334 313 303 300 300 303 301 298 297 296 295 293 293 293 284 274 267 260 252 245 233 233 233 218 223 222 214 202 221 210 211 210 205 203
349 341 335 325 323 321 332 299 312 345 353 349 344 345 349 347 337 324 313 308 301 298 297 296 295 294 295 295 293 287 278 267 259 250 244 234 231 230 223 217 221 218 206 194 204 202 213 214 203
340 340 331 313 309 311 317 327 318 327 339 345 342 342 345 343 333 326 315 309 303 300 297 294 293 295 297 295 292 289 285 273 262 249 243 236 228 227 226 215 215 219 211 205 204 200 208 208 211
340 346 328 304 322 298 315 355 295 337 331 338 343 340 340 340 336 327 316 315 312 306 304 303 300 297 294 290 288 286 285 277 262 252 241 237 229 225 222 219 217 215 207 191 205 210 200 213 211
344 358 334 341 337 247 308 318 314 326 321 339 343 338 336 335 335 329 320 317 314 311 308 305 300 299 298 296 291 283 278 271 261 252 243 234 230 224 221 221 217 215 221 208 200 202 205 205 218
345 15 47 274 294 292 295 235 323 326 325 340 338 335 334 332 327 323 320 316 312 311 309 307 306 304 302 300 296 288 276 266 259 250 241 236 228 225 220 219 218 211 206 206 211 197 200 204 215
339 351 349 270 275 318 267 302 333 338 331 334 335 333 331 327 324 323 318 316 316 313 311 309 307 304 301 295 291 286 277 267 257 248 241 234 226 223 220 217 218 211 210 215 216 207 203 210 208
322 326 327 332 330 301 274 285 316 332 333 332 331 328 328 326 325 324 322 320 317 314 313 311 310 307 304 298 290 283 274 258 250 245 240 233 227 219 220 216 216 212 207 211 215 208 195 208 206
310 303 293 299 231 204 298 297 319 335 335 329 325 325 327 328 330 328 327 322 319 316 316 317 316 316 312 302 291 274 264 255 245 243 237 231 226 218 217 215 213 211 208 207 207 211 198 202 208
290 290 277 245 243 230 256 275 331 329 329 324 323 328 329 332 333 330 326 322 318 321 323 322 324 319 306 295 282 271 262 259 252 244 235 229 224 219 213 215 211 208 207 204 202 212 201 197 208